Satellite-Ground Cal/Val Site Overpasses Predictions

Prediction of Satellite NPP Overpassing Cal/Val Site: Antarctic Dome C

Ground Cal/Val Site Location: Latitude: -75.10, Longitude: 123.35; Satellite-Ground Site NADIR distance within 100 km.

Table of predicted overpasses for the next 14.0 days since TLE Epoch: 6/17/2023
Interval Starting Time Ending Time Minimum Distance Time Minimum Distance (km)
1 06/17/2023 15:09:00 06/17/2023 15:09:11 06/17/2023 15:09:06 90.58
2 06/18/2023 14:50:01 06/18/2023 14:50:29 06/18/2023 14:50:15 20.60
3 06/20/2023 07:32:48 06/20/2023 07:33:17 06/20/2023 07:33:02 1.71
4 06/23/2023 14:56:11 06/23/2023 14:56:40 06/23/2023 14:56:26 15.79
5 06/24/2023 14:37:29 06/24/2023 14:37:40 06/24/2023 14:37:35 91.38
6 06/25/2023 07:38:59 06/25/2023 07:39:26 06/25/2023 07:39:13 35.34
7 06/26/2023 07:20:12 06/26/2023 07:20:31 06/26/2023 07:20:21 74.98
8 06/28/2023 15:02:22 06/28/2023 15:02:47 06/28/2023 15:02:35 52.18
9 06/29/2023 14:43:33 06/29/2023 14:43:56 06/29/2023 14:43:44 56.90
